Welcome to our new website - Welkom op onze vernieuwde website - Bienvenue sur notre nouveau site web - Willkommen auf unserer neuen Website
Check our progress frequently. Prüfen Sie unsere Fortschritte regelmäßig. Consultez notre progression fréquemment. Komt u straks nog eens terug
Het weer levert geen direct gevaar op.    Er zijn geen waarschuwingen afgegeven.

Regen radar Meer informatie rain snow radar


Bezoek ook deze websites:

Template documentation
and downloads

And another site


U vindt ons ook hier:

UK Metoffice

WeatherCloud

Weather Underground

AWEKAS


Select another period ( hide this area )

Eenheden Periode Custom range Directly to
Metrisch Engels Beide
Dagelijkse Wekelijkse Maandelijkse Jaarlijkse
use both date-selectors for a custom range
previous Dag
With this date

WeatherUnderground graphs for this period ( click here )


Dagelijkse Samenvatting Donderdag 21 maart 2019
Tijd Temp. ( °C ) Dew pt. ( °C ) Wind ( km/h ) van Windvlaag ( km/h ) Luchtdruk ( hPa ) Humid.( % ) Rainrate ( cm ) Zonneschijn ( W/m2 )
Hoog10,6 8,5 11,1 ZZW ( 101/259 ) 14,5 1034,8 97 - 241
Gemiddeld6,9 6,1 1,9 Kalm #89/138 3,2 1033,8 94 - 111 #56/138
Laag4,4 3,7 -   0,0 1033,4 86 -  
Dagelijkse Tabular details for Donderdag 21 maart 2019
Tijd Temp. ( °C ) Dew pt. ( °C ) Wind ( km/h ) van Windvlaag ( km/h ) Luchtdruk ( hPa ) Humid.( % ) Rainrate ( cm ) Zonneschijn ( W/m2 )
00:04 9,3 8,2   Kalm   1033,7 93 - -
00:09 9,2 8,1   Kalm   1033,7 93 - -
00:14 9,1 8,0   Kalm   1033,7 93 - -
00:19 8,9 7,8   Kalm   1033,7 93 - -
00:24 8,8 7,7   Kalm   1033,7 93 - -
00:29 8,7 7,6   Kalm   1033,7 93 - -
00:34 8,6 7,5   Kalm   1033,7 93 - -
00:39 8,5 7,6   Kalm   1033,7 94 - -
00:44 8,4 7,5   Kalm   1033,7 94 - -
00:49 8,3 7,4   Kalm   1033,7 94 - -
00:54 8,2 7,3   Kalm   1033,7 94 - -
00:59 8,1 7,2   Kalm   1033,7 94 - -
01:04 8,1 7,2   Kalm   1033,7 94 - -
01:09 7,9 7,0   Kalm   1033,7 94 - -
01:14 7,9 7,0   Kalm   1033,7 94 - -
01:19 7,8 6,9   Kalm   1033,7 94 - -
01:24 7,7 6,8   Kalm   1033,7 94 - -
01:29 7,6 6,7   Kalm   1033,7 94 - -
01:34 7,4 6,5   Kalm   1033,7 94 - -
01:39 7,3 6,4   Kalm   1033,7 94 - -
01:44 7,2 6,3   Kalm   1033,7 94 - -
01:49 7,0 6,1   Kalm   1033,7 94 - -
01:54 6,7 5,8   Kalm   1033,7 94 - -
01:59 6,6 5,7   Kalm   1033,7 94 - -
02:04 6,5 5,6   Kalm   1033,4 94 - -
02:09 6,5 5,6   Kalm   1033,4 94 - -
02:14 6,4 5,5   Kalm   1033,4 94 - -
02:19 6,4 5,5   Kalm   1033,4 94 - -
02:24 6,4 5,7   Kalm   1033,7 95 - -
02:29 6,4 5,7   Kalm   1033,7 95 - -
02:34 6,4 5,7   Kalm   1033,7 95 - -
02:39 6,3 5,6   Kalm   1033,7 95 - -
02:43 6,3 5,6   Kalm   1033,7 95 - -
02:49 6,3 5,6   Kalm   1033,7 95 - -
02:54 6,3 5,6   Kalm   1033,7 95 - -
02:59 6,4 5,7   Kalm   1033,7 95 - -
03:04 6,6 5,9   Kalm   1033,7 95 - -
03:09 6,5 5,8   Kalm   1033,7 95 - -
03:14 6,2 5,5   Kalm   1033,4 95 - -
03:19 6,1 5,4   Kalm   1033,7 95 - -
03:24 5,9 5,2   Kalm   1033,4 95 - -
03:29 5,8 5,1   Kalm   1033,4 95 - -
03:34 5,8 5,1   Kalm   1033,4 95 - -
03:39 5,9 5,2   Kalm   1033,4 95 - -
03:44 5,9 5,2   Kalm   1033,4 95 - -
03:49 5,7 5,0   Kalm   1033,7 95 - -
03:54 5,5 4,8   Kalm   1033,4 95 - -
03:59 5,4 4,7   Kalm   1033,4 95 - -
04:04 5,3 4,6   Kalm   1033,4 95 - -
04:09 5,3 4,6   Kalm   1033,4 95 - -
04:14 5,3 4,6   Kalm   1033,4 95 - -
04:19 5,1 4,4   Kalm   1033,4 95 - -
04:24 5,1 4,4 1,4 WZW 3,2 1033,4 95 - -
04:29 5,0 4,3   Kalm   1033,4 95 - -
04:34 4,9 4,2   Kalm   1033,4 95 - -
04:39 4,9 4,2   Kalm   1033,4 95 - -
04:44 5,1 4,5   Kalm   1033,4 96 - -
04:49 5,2 4,6   Kalm   1033,4 96 - -
04:54 5,3 4,7   Kalm   1033,4 96 - -
04:59 5,4 4,8   Kalm   1033,4 96 - -
05:04 5,3 4,6   Kalm   1033,4 95 - -
05:09 5,1 4,4   Kalm   1033,4 95 - -
05:14 5,1 4,4   Kalm 3,2 1033,4 95 - -
05:19 5,1 4,4   Kalm   1033,4 95 - -
05:24 5,2 4,6   Kalm   1033,4 96 - -
05:29 5,1 4,4   Kalm   1033,4 95 - -
05:34 4,8 4,1   Kalm   1033,4 95 - -
05:39 4,8 4,1   Kalm   1033,4 95 - -
05:44 4,7 4,0   Kalm   1033,4 95 - -
05:49 4,6 3,9   Kalm   1033,4 95 - -
05:54 4,5 3,8   Kalm   1033,4 95 - -
05:59 4,4 3,8   Kalm   1033,4 96 - -
06:04 4,4 3,7   Kalm   1033,4 95 - -
06:09 4,4 3,8   Kalm   1033,4 96 - -
06:14 4,6 4,0   Kalm   1033,7 96 - -
06:19 4,8 4,2   Kalm   1033,7 96 - -
06:24 4,8 4,2   Kalm   1033,7 96 - -
06:29 4,9 4,3   Kalm   1033,7 96 - -
06:34 5,1 4,5   Kalm 6,4 1033,7 96 - -
06:39 5,3 4,7 1,4 WZW 1,6 1033,7 96 - -
06:44 5,3 4,7   Kalm 1,6 1033,7 96 - -
06:49 5,4 5,0   Kalm   1033,7 97 - -
06:54 5,6 5,0   Kalm   1033,7 96 - 5
06:59 5,7 5,1 4,7 WZW 4,8 1033,7 96 - 9
07:04 5,8 5,4 1,4 WZW 4,8 1033,7 97 - 12
07:09 5,9 5,5   Kalm   1033,7 97 - 18
07:14 6,0 5,6   Kalm   1033,7 97 - 18
07:19 6,1 5,7   Kalm   1034,1 97 - 23
07:24 6,2 5,8 6,4 ZW 6,4 1034,1 97 - 26
07:29 6,2 5,8 1,4 ZW 4,8 1034,1 97 - 28
07:34 6,2 5,8   Kalm   1034,1 97 - 35
07:39 6,2 5,6 1,4 ZW 4,8 1034,1 96 - 37
07:44 6,3 5,7   Kalm   1034,1 96 - 37
07:49 6,3 5,7   Kalm   1034,1 96 - 40
07:54 6,4 6,0   Kalm   1034,1 97 - 39
07:59 6,7 6,3 3,2 ZW 8,0 1034,1 97 - 37
08:04 6,8 6,4   Kalm   1034,1 97 - 33
08:09 6,9 6,5 3,2 ZZW 9,7 1034,1 97 - 63
08:14 7,0 6,6 4,7 ZZW 6,4 1034,1 97 - 67
08:19 7,1 6,7 3,2 ZZW 6,4 1034,1 97 - 76
08:24 7,1 6,7 3,2 ZZW 4,8 1034,4 97 - 79
08:28 7,2 6,8 7,9 ZZW 8,0 1034,1 97 - 95
08:33 7,3 6,9 3,2 ZW 9,7 1034,4 97 - 98
08:39 7,3 6,9 7,9 ZZW 12,9 1034,4 97 - 102
08:44 7,4 7,0 4,7 ZW 8,0 1034,4 97 - 97
08:49 7,4 7,0 11,1 Zuiden 14,5 1034,4 97 - 95
08:54 7,5 6,9 4,7 Zuiden 11,3 1034,4 96 - 79
08:59 7,6 7,0 7,9 ZW 8,0 1034,4 96 - 69
09:04 7,6 7,0 7,9 ZW 12,9 1034,4 96 - 54
09:09 7,6 7,0 6,4 ZW 11,3 1034,4 96 - 62
09:14 7,7 7,1 7,9 ZW 9,7 1034,4 96 - 79
09:19 7,7 7,1 3,2 ZW 6,4 1034,4 96 - 76
09:24 7,8 7,2 6,4 ZZW 9,7 1034,4 96 - 91
09:29 7,9 7,1 6,4 ZW 9,7 1034,4 95 - 104
09:34 7,9 7,1 6,4 ZW 9,7 1034,4 95 - 113
09:39 8,1 7,3 6,4 ZZW 9,7 1034,4 95 - 127
09:44 8,2 7,3 6,4 ZW 11,3 1034,4 94 - 146
09:49 8,3 7,4 7,9 ZZW 8,0 1034,4 94 - 179
09:54 8,4 7,5 7,9 Zuiden 11,3 1034,4 94 - 179
09:59 8,6 7,7 7,9 ZZW 8,0 1034,4 94 - 199
10:04 8,7 7,6 4,7 Zuiden 11,3 1034,4 93 - 213
10:09 8,8 7,7 7,9 ZZW 8,0 1034,4 93 - 193
10:14 8,9 7,7 4,7 ZZW 6,4 1034,4 92 - 186
10:19 9,1 7,9 7,9 ZZW 9,7 1034,4 92 - 178
10:24 9,2 8,0 6,4 ZZW 9,7 1034,4 92 - 204
10:29 9,4 8,2 1,4 ZW 8,0 1034,4 92 - 195
10:34 9,6 8,2 3,2 ZZW 11,3 1034,8 91 - 178
10:39 9,7 8,1 6,4 ZW 6,4 1034,4 90 - 188
10:44 9,8 8,2 4,7 WZW 11,3 1034,4 90 - 176
10:49 9,9 8,2 3,2 ZW 8,0 1034,4 89 - 206
10:54 10,1 8,5 4,7 WZW 11,3 1034,4 90 - 149
10:59 10,2 8,5 4,7 ZW 8,0 1034,4 89 - 183
11:04 10,3 8,4 3,2 ZW 11,3 1034,4 88 - 241
11:09 10,3 8,2 6,4 WZW 11,3 1034,4 87 - 214
11:14 10,4 8,3 4,7 ZZW 12,9 1034,4 87 - 195
11:19 10,5 8,3 6,4 ZW 11,3 1034,4 86 - 202
11:24 10,6 8,4 6,4 WZW 11,3 1034,4 86 - 211
11:29 10,6 8,4 7,9 ZZW 12,9 1034,4 86 - 190
Dagelijkse Samenvatting Donderdag 21 maart 2019
Tijd Temp. ( °C ) Dew pt. ( °C ) Wind ( km/h ) van Windvlaag ( km/h ) Luchtdruk ( hPa ) Humid.( % ) Rainrate ( cm ) Zonneschijn ( W/m2 )
Hoog10,6 8,5 11,1 ZZW ( 101/259 ) 14,5 1034,8 97 - 241
Gemiddeld6,9 6,1 1,9 Kalm #89/138 3,2 1033,8 94 - 111 #56/138
Laag4,4 3,7 -   0,0 1033,4 86 -  
Dagelijkse Tabular details for Donderdag 21 maart 2019
Tijd Temp. ( °C ) Dew pt. ( °C ) Wind ( km/h ) van Windvlaag ( km/h ) Luchtdruk ( hPa ) Humid.( % ) Rainrate ( cm ) Zonneschijn ( W/m2 )
00:04 9,3 8,2   Kalm   1033,7 93 - -
00:09 9,2 8,1   Kalm   1033,7 93 - -
00:14 9,1 8,0   Kalm   1033,7 93 - -
00:19 8,9 7,8   Kalm   1033,7 93 - -
00:24 8,8 7,7   Kalm   1033,7 93 - -
00:29 8,7 7,6   Kalm   1033,7 93 - -
00:34 8,6 7,5   Kalm   1033,7 93 - -
00:39 8,5 7,6   Kalm   1033,7 94 - -
00:44 8,4 7,5   Kalm   1033,7 94 - -
00:49 8,3 7,4   Kalm   1033,7 94 - -
00:54 8,2 7,3   Kalm   1033,7 94 - -
00:59 8,1 7,2   Kalm   1033,7 94 - -
01:04 8,1 7,2   Kalm   1033,7 94 - -
01:09 7,9 7,0   Kalm   1033,7 94 - -
01:14 7,9 7,0   Kalm   1033,7 94 - -
01:19 7,8 6,9   Kalm   1033,7 94 - -
01:24 7,7 6,8   Kalm   1033,7 94 - -
01:29 7,6 6,7   Kalm   1033,7 94 - -
01:34 7,4 6,5   Kalm   1033,7 94 - -
01:39 7,3 6,4   Kalm   1033,7 94 - -
01:44 7,2 6,3   Kalm   1033,7 94 - -
01:49 7,0 6,1   Kalm   1033,7 94 - -
01:54 6,7 5,8   Kalm   1033,7 94 - -
01:59 6,6 5,7   Kalm   1033,7 94 - -
02:04 6,5 5,6   Kalm   1033,4 94 - -
02:09 6,5 5,6   Kalm   1033,4 94 - -
02:14 6,4 5,5   Kalm   1033,4 94 - -
02:19 6,4 5,5   Kalm   1033,4 94 - -
02:24 6,4 5,7   Kalm   1033,7 95 - -
02:29 6,4 5,7   Kalm   1033,7 95 - -
02:34 6,4 5,7   Kalm   1033,7 95 - -
02:39 6,3 5,6   Kalm   1033,7 95 - -
02:43 6,3 5,6   Kalm   1033,7 95 - -
02:49 6,3 5,6   Kalm   1033,7 95 - -
02:54 6,3 5,6   Kalm   1033,7 95 - -
02:59 6,4 5,7   Kalm   1033,7 95 - -
03:04 6,6 5,9   Kalm   1033,7 95 - -
03:09 6,5 5,8   Kalm   1033,7 95 - -
03:14 6,2 5,5   Kalm   1033,4 95 - -
03:19 6,1 5,4   Kalm   1033,7 95 - -
03:24 5,9 5,2   Kalm   1033,4 95 - -
03:29 5,8 5,1   Kalm   1033,4 95 - -
03:34 5,8 5,1   Kalm   1033,4 95 - -
03:39 5,9 5,2   Kalm   1033,4 95 - -
03:44 5,9 5,2   Kalm   1033,4 95 - -
03:49 5,7 5,0   Kalm   1033,7 95 - -
03:54 5,5 4,8   Kalm   1033,4 95 - -
03:59 5,4 4,7   Kalm   1033,4 95 - -
04:04 5,3 4,6   Kalm   1033,4 95 - -
04:09 5,3 4,6   Kalm   1033,4 95 - -
04:14 5,3 4,6   Kalm   1033,4 95 - -
04:19 5,1 4,4   Kalm   1033,4 95 - -
04:24 5,1 4,4 1,4 WZW 3,2 1033,4 95 - -
04:29 5,0 4,3   Kalm   1033,4 95 - -
04:34 4,9 4,2   Kalm   1033,4 95 - -
04:39 4,9 4,2   Kalm   1033,4 95 - -
04:44 5,1 4,5   Kalm   1033,4 96 - -
04:49 5,2 4,6   Kalm   1033,4 96 - -
04:54 5,3 4,7   Kalm   1033,4 96 - -
04:59 5,4 4,8   Kalm   1033,4 96 - -
05:04 5,3 4,6   Kalm   1033,4 95 - -
05:09 5,1 4,4   Kalm   1033,4 95 - -
05:14 5,1 4,4   Kalm 3,2 1033,4 95 - -
05:19 5,1 4,4   Kalm   1033,4 95 - -
05:24 5,2 4,6   Kalm   1033,4 96 - -
05:29 5,1 4,4   Kalm   1033,4 95 - -
05:34 4,8 4,1   Kalm   1033,4 95 - -
05:39 4,8 4,1   Kalm   1033,4 95 - -
05:44 4,7 4,0   Kalm   1033,4 95 - -
05:49 4,6 3,9   Kalm   1033,4 95 - -
05:54 4,5 3,8   Kalm   1033,4 95 - -
05:59 4,4 3,8   Kalm   1033,4 96 - -
06:04 4,4 3,7   Kalm   1033,4 95 - -
06:09 4,4 3,8   Kalm   1033,4 96 - -
06:14 4,6 4,0   Kalm   1033,7 96 - -
06:19 4,8 4,2   Kalm   1033,7 96 - -
06:24 4,8 4,2   Kalm   1033,7 96 - -
06:29 4,9 4,3   Kalm   1033,7 96 - -
06:34 5,1 4,5   Kalm 6,4 1033,7 96 - -
06:39 5,3 4,7 1,4 WZW 1,6 1033,7 96 - -
06:44 5,3 4,7   Kalm 1,6 1033,7 96 - -
06:49 5,4 5,0   Kalm   1033,7 97 - -
06:54 5,6 5,0   Kalm   1033,7 96 - 5
06:59 5,7 5,1 4,7 WZW 4,8 1033,7 96 - 9
07:04 5,8 5,4 1,4 WZW 4,8 1033,7 97 - 12
07:09 5,9 5,5   Kalm   1033,7 97 - 18
07:14 6,0 5,6   Kalm   1033,7 97 - 18
07:19 6,1 5,7   Kalm   1034,1 97 - 23
07:24 6,2 5,8 6,4 ZW 6,4 1034,1 97 - 26
07:29 6,2 5,8 1,4 ZW 4,8 1034,1 97 - 28
07:34 6,2 5,8   Kalm   1034,1 97 - 35
07:39 6,2 5,6 1,4 ZW 4,8 1034,1 96 - 37
07:44 6,3 5,7   Kalm   1034,1 96 - 37
07:49 6,3 5,7   Kalm   1034,1 96 - 40
07:54 6,4 6,0   Kalm   1034,1 97 - 39
07:59 6,7 6,3 3,2 ZW 8,0 1034,1 97 - 37
08:04 6,8 6,4   Kalm   1034,1 97 - 33
08:09 6,9 6,5 3,2 ZZW 9,7 1034,1 97 - 63
08:14 7,0 6,6 4,7 ZZW 6,4 1034,1 97 - 67
08:19 7,1 6,7 3,2 ZZW 6,4 1034,1 97 - 76
08:24 7,1 6,7 3,2 ZZW 4,8 1034,4 97 - 79
08:28 7,2 6,8 7,9 ZZW 8,0 1034,1 97 - 95
08:33 7,3 6,9 3,2 ZW 9,7 1034,4 97 - 98
08:39 7,3 6,9 7,9 ZZW 12,9 1034,4 97 - 102
08:44 7,4 7,0 4,7 ZW 8,0 1034,4 97 - 97
08:49 7,4 7,0 11,1 Zuiden 14,5 1034,4 97 - 95
08:54 7,5 6,9 4,7 Zuiden 11,3 1034,4 96 - 79
08:59 7,6 7,0 7,9 ZW 8,0 1034,4 96 - 69
09:04 7,6 7,0 7,9 ZW 12,9 1034,4 96 - 54
09:09 7,6 7,0 6,4 ZW 11,3 1034,4 96 - 62
09:14 7,7 7,1 7,9 ZW 9,7 1034,4 96 - 79
09:19 7,7 7,1 3,2 ZW 6,4 1034,4 96 - 76
09:24 7,8 7,2 6,4 ZZW 9,7 1034,4 96 - 91
09:29 7,9 7,1 6,4 ZW 9,7 1034,4 95 - 104
09:34 7,9 7,1 6,4 ZW 9,7 1034,4 95 - 113
09:39 8,1 7,3 6,4 ZZW 9,7 1034,4 95 - 127
09:44 8,2 7,3 6,4 ZW 11,3 1034,4 94 - 146
09:49 8,3 7,4 7,9 ZZW 8,0 1034,4 94 - 179
09:54 8,4 7,5 7,9 Zuiden 11,3 1034,4 94 - 179
09:59 8,6 7,7 7,9 ZZW 8,0 1034,4 94 - 199
10:04 8,7 7,6 4,7 Zuiden 11,3 1034,4 93 - 213
10:09 8,8 7,7 7,9 ZZW 8,0 1034,4 93 - 193
10:14 8,9 7,7 4,7 ZZW 6,4 1034,4 92 - 186
10:19 9,1 7,9 7,9 ZZW 9,7 1034,4 92 - 178
10:24 9,2 8,0 6,4 ZZW 9,7 1034,4 92 - 204
10:29 9,4 8,2 1,4 ZW 8,0 1034,4 92 - 195
10:34 9,6 8,2 3,2 ZZW 11,3 1034,8 91 - 178
10:39 9,7 8,1 6,4 ZW 6,4 1034,4 90 - 188
10:44 9,8 8,2 4,7 WZW 11,3 1034,4 90 - 176
10:49 9,9 8,2 3,2 ZW 8,0 1034,4 89 - 206
10:54 10,1 8,5 4,7 WZW 11,3 1034,4 90 - 149
10:59 10,2 8,5 4,7 ZW 8,0 1034,4 89 - 183
11:04 10,3 8,4 3,2 ZW 11,3 1034,4 88 - 241
11:09 10,3 8,2 6,4 WZW 11,3 1034,4 87 - 214
11:14 10,4 8,3 4,7 ZZW 12,9 1034,4 87 - 195
11:19 10,5 8,3 6,4 ZW 11,3 1034,4 86 - 202
11:24 10,6 8,4 6,4 WZW 11,3 1034,4 86 - 211
11:29 10,6 8,4 7,9 ZZW 12,9 1034,4 86 - 190

Download your copy of this data-set  here

Our weather-data as stored at Weather Underground. Script ontwikkeld door Jim McMurry. Aangepast voor de template door Leuven-Template.eu

Apparatuur in gebruik:

Weerstation
Davis Vantage Pro2

Weerprogramma
Meteobridge

Weercomputer
TP-Link TL-MR3020

Webleverancier
One.com

Davis Vantage Pro2

Meteobridge

TP-Link TL-MR3020

One.com